Location: Brno
(49.2000°N, 16.6330°E)
Time: 16:33:34
(UTC+02:00)

Iridium 2 - Visible Passes

Search period start: 30 May 2016 00:00
Search period end: 09 June 2016 00:00
Orbit: 512 x 528 km, 85.5° (Epoch: 29 May)

Date Brightness Start Highest point End Pass type
(mag) Time Alt. Az. Time Alt. Az. Time Alt. Az.
30 May 6.2 00:31:13 10° E 00:32:32 12° ENE 00:33:52 10° ENE visible
30 May 3.8 02:06:14 39° SSW 02:07:27 65° W 02:11:16 10° N visible
31 May 3.6 01:52:45 43° SSW 01:53:54 79° W 01:57:44 10° N visible
01 Jun 3.6 01:39:15 45° S 01:40:21 85° E 01:44:11 10° N visible
02 Jun 3.7 01:25:45 44° SSE 01:26:49 70° E 01:30:36 10° N visible
02 Jun 6.1 03:01:33 10° W 03:02:47 11° WNW 03:04:01 10° NW visible
03 Jun 4.0 01:12:14 41° SE 01:13:15 57° E 01:17:01 10° NNE visible
03 Jun 6.0 02:47:20 10° W 02:49:08 13° WNW 02:51:03 10° NW visible
04 Jun 4.3 00:58:42 36° SE 00:59:43 47° E 01:03:24 10° NNE visible
04 Jun 5.8 02:33:48 12° W 02:35:29 16° WNW 02:37:52 10° NNW visible
05 Jun 4.6 00:45:10 32° SE 00:46:11 39° E 00:49:45 10° NNE visible
05 Jun 5.7 02:20:16 15° WSW 02:21:51 18° WNW 02:24:34 10° NNW visible
06 Jun 4.8 00:31:38 27° ESE 00:32:40 32° E 00:36:06 10° NNE visible
06 Jun 5.5 02:06:43 17° WSW 02:08:12 22° WNW 02:11:13 10° NNW visible
07 Jun 5.1 00:18:04 23° ESE 00:19:09 27° E 00:22:24 10° NNE visible
07 Jun 5.2 01:53:10 20° WSW 01:54:35 25° WNW 01:57:48 10° NNW visible
08 Jun 5.3 00:04:30 20° ESE 00:05:37 23° E 00:08:40 10° NNE visible
08 Jun 5.0 01:39:36 24° WSW 01:40:57 30° WNW 01:44:22 10° NNW visible
08 Jun 5.5 23:50:56 17° ESE 23:52:06 19° E 23:54:53 10° NE visible
